Regional Weather Roundup
Issued by NWS

Home | Current Version | Previous Version | Text Only | Print | Product List | Glossary Off
Versions: 1 2 3 4 5 6 7 8 9 10 11 12 13 14 15 16 17 18 19 20 21 22 23 24 25 26 27 28 29 30 31 32 33 34 35 36 37 38 39 40 41 42 43 44 45 46 47 48 49 50

000
ASUS43 KMKX 300700
RWRWI

WISCONSIN REGIONAL WEATHER ROUNDUP
NATIONAL WEATHER SERVICE MILWAUKEE/SULLIVAN WI
200 AM CDT WED JUL 30 2014

NOTE: "FAIR" INDICATES FEW OR NO CLOUDS BELOW 12,000 FEET WITH NO
SIGNIFICANT WEATHER AND/OR OBSTRUCTIONS TO VISIBILITY.

WIZ001-002-006>008-014>016-023>028-300800-
NORTHWEST WISCONSIN

CITY           SKY/WX    TMP DP  RH WIND       PRES   REMARKS
SUPERIOR ARPT  FOG       51  51  99 CALM      30.05S VSB 1/2
ASHLAND        CLOUDY    51  50  96 CALM      30.06S
HAYWARD        FOG       50  50 100 CALM      30.07R VSB 1/4
SIREN          CLEAR     57  56  97 CALM      30.06F FOG
RICE LAKE      CLEAR     57  55  94 CALM      30.06S
LADYSMITH      CLEAR     56  55  95 N3        30.06S FOG
EAU CLAIRE     NOT AVBL
MENOMONIE      PTSUNNY   60  57  91 SW7       30.05S
NEW RICHMOND   PTCLDY    58  56  94 CALM      30.07R
OSCEOLA        MOCLDY    57  57 100 CALM      30.09F
$$

WIZ003>005-009-010-017-018-300800-
NORTH CENTRAL WISCONSIN

CITY           SKY/WX    TMP DP  RH WIND       PRES   REMARKS
WOODRUFF       CLEAR     55  52  90 N5        30.05S
RHINELANDER    CLEAR     52  51  97 CALM      30.05S
EAGLE RIVER      N/A     49  49  99 CALM      30.04S FOG
LAND O LAKES   PTCLDY    47  46  99 CALM      30.06S
PHILLIPS       PTCLDY    51  51 100 CALM      30.04S FOG
TOMAHAWK       FOG       49  48  97 CALM      30.05S VSB 1/4
MEDFORD        MOCLDY    53  53  99 NW5       30.04S
MERRILL        FOG       51  51 100 CALM      30.03F VSB 1
$$

WIZ029-030-035-036-043>047-300800-
CENTRAL WISCONSIN

CITY           SKY/WX    TMP DP  RH WIND       PRES   REMARKS
WAUSAU         CLEAR     56  54  93 NW7       30.01S
MOSINEE        CLEAR     55  54  94 NW5       30.04R
MARSHFIELD     PTCLDY    56  54  93 NW5       30.03R
STEVENS POINT  CLEAR     53  51  93 CALM      30.03S
WAUPACA        MOCLDY    61  56  83 NW5       30.01S
WAUTOMA        NOT AVBL
WISC RAPIDS    MOCLDY    57  56  96 NW5       30.04S
CAMP DOUGLAS   PTCLDY    54  54 100 W5        30.03S FOG
$$

WIZ011>013-019>022-031-037>040-048>050-300800-
NORTHEAST WISCONSIN

CITY           SKY/WX    TMP DP  RH WIND       PRES   REMARKS
ANTIGO         CLEAR     53  52  97 N3        30.03S
STURGEON BAY   PTCLDY    59  55  88 NE5       29.99F
GREEN BAY      CLOUDY    59  58  96 NW5       29.99S
MANITOWOC      NOT AVBL
APPLETON       CLEAR     55  54  94 W7        30.00S
CLINTONVILLE   MOCLDY    57  54  88 NW5       30.00S
OSHKOSH        CLEAR     58  56  93 W5        29.99S
$$

WIZ032>034-041-042-053>061-300800-
SOUTHWEST WISCONSIN

CITY           SKY/WX    TMP DP  RH WIND       PRES   REMARKS
LA CROSSE      CLEAR     61  58  90 CALM      30.03F FOG
SPARTA         FOG       56  55  97 CALM      30.05S VSB 3/4
VIROQUA        FAIR      58  58 100 CALM      30.05S
BOSCOBEL       PTCLDY    61  58  90 CALM      30.03F
PRAIRIE DU CHI CLOUDY    65  57  77 NW3       30.04S
PLATTEVILLE    CLOUDY    61  59  91 W3        30.05F
$$

WIZ056-057-062-063-064-067-068-300800-
SOUTH CENTRAL WISCONSIN

CITY           SKY/WX    TMP DP  RH WIND       PRES   REMARKS
BARABOO/DELLS  MOCLDY    57  55  91 CALM      30.03S
LONE ROCK      NOT AVBL
WATERTOWN      PTCLDY    56  56  99 CALM      30.01F
MADISON        PTCLDY    61  56  83 CALM      30.02F
MIDDLETON      PTSUNNY   59  58  96 CALM      30.03S
MONROE         MOCLDY    61  57  88 W8        30.03F
JANESVILLE     PTCLDY    59  55  88 W3        30.02F
$$

WIZ051-052-058>065-066-070>072-300800-
SOUTHEAST WISCONSIN

CITY           SKY/WX    TMP DP  RH WIND       PRES   REMARKS
MILWAUKEE      PTCLDY    60  55  83 W7        30.00S
WAUKESHA       CLEAR     52  52 100 CALM      30.02S
MILWAUKEE/TIMM CLEAR     57  54  88 W6        30.00F
RACINE         MOCLDY    59  56  89 W6        30.01S
BURLINGTON     CLEAR     54  53  99 CALM      30.01S
KENOSHA        CLEAR     56  54  93 W5        30.00F
FOND DU LAC    CLEAR     56  54  93 SW5       30.00F
SHEBOYGAN      CLEAR     58  55  90 W7        29.98F
WEST BEND      PTCLDY    55  52  88 W3        30.00S
JUNEAU         PTCLDY    55  54  96 SW5       30.02F
$$

LSZ147-162-300800-
LAKE SUPERIOR

STATION/POSITION TIME  TEMP    WIND        PRES    WAVE
                       AIR SEA DIR/SP/G            HT/PER
                 (UTC) (F)     (DEG/KT/KT) (MB)    (FT/S)
W MID LAKE BUOY  0550   47 43  150/  2/  4 1017.7R   0
PORT WING        0640   55     160/  3/  4 1017.9R
SAXON HARBOR     0600             CALM     1017.6R
$$

LMZ867-665-643>646-300800-
LAKE MICHIGAN

STATION/POSITION TIME  TEMP    WIND        PRES    WAVE
                       AIR SEA DIR/SP/G            HT/PER
                 (UTC) (F)     (DEG/KT/KT) (MB)    (FT/S)
N MID LAKE BUOY  0550   57 55  350/  8/  8 1014.8F   0
NORTHPORT PIER   0600   61      10/  4/  6 1015.6S
SISTER BAY       0640   58        CALM       N/A
ALGOMA LAKESHORE 0621           40/  8/ 10   N/A
KEWAUNEE LAKESHO 0600   56      20/  2/  3 1016.1R
SHEBOYGAN LAKESH 0600   62     280/ 11/ 14 1015.4S
PORT WASHINGTON  0640   60     300/  7/ 10 1015.9S
ATWATER BUOY     0600   62     240/ 12     1016.4F
MILWAUKEE LAKESH 0600   61     290/  8/ 10   N/A
S MID LAKE BUOY  0550   61 61  200/  2/  4 1015.8R   1
KENOSHA   LAKESH 0600   61     270/  9/ 12 1015.6S
$$

TC  - TEMPERATURE IN CELSIUS
VSB - VISIBILITY IN STATUTE MILES
WCI - WIND CHILL INDEX
HX  - HEAT INDEX



USA.gov is the U.S. government's official web portal to all federal, state and local government web resources and services.